| time (UTC) | temp F | wind direction | speed MPH | gust MPH | rain 1hr in | rain 24hr in | rain mn in | humidity % | barometer mb |
| 20260503222244 | 69 | 226 | 3.0 | 9.0 | 0.00 | 0.01 | 0.01 | 25 | 1003.7 |
| 20260503221514 | 68 | 323 | 4.0 | 10.0 | 0.00 | 0.01 | 0.01 | 25 | 1003.7 |
| 20260503221013 | 68 | 320 | 3.0 | 10.0 | 0.00 | 0.01 | 0.01 | 25 | 1003.7 |
| 20260503220512 | 68 | 322 | 3.0 | 11.0 | 0.00 | 0.01 | 0.01 | 26 | 1003.8 |
| 20260503220014 | 68 | 272 | 4.0 | 11.0 | 0.00 | 0.01 | 0.01 | 26 | 1003.9 |
| 20260503215508 | 68 | 328 | 3.0 | 9.0 | 0.00 | 0.01 | 0.01 | 27 | 1004.0 |
| 20260503215002 | 68 | 276 | 3.0 | 12.0 | 0.00 | 0.01 | 0.01 | 26 | 1004.0 |
| 20260503214456 | 68 | 266 | 3.0 | 12.0 | 0.00 | 0.01 | 0.01 | 25 | 1004.0 |
| 20260503213950 | 68 | 205 | 4.0 | 11.0 | 0.00 | 0.01 | 0.01 | 26 | 1004.2 |
| 20260503213444 | 67 | 27 | 3.0 | 13.0 | 0.00 | 0.01 | 0.01 | 26 | 1004.1 |
| 20260503212938 | 67 | 347 | 4.0 | 12.0 | 0.00 | 0.01 | 0.01 | 26 | 1004.2 |
| 20260503212703 | 67 | 314 | 4.0 | 11.0 | 0.00 | 0.01 | 0.01 | 26 | 1004.4 |
| 20260503212156 | 67 | 328 | 5.0 | 11.0 | 0.00 | 0.01 | 0.01 | 28 | 1004.4 |
| 20260503211420 | 67 | 321 | 6.0 | 13.0 | 0.00 | 0.01 | 0.01 | 30 | 1004.4 |
| 20260503210914 | 66 | 327 | 6.0 | 14.0 | 0.00 | 0.01 | 0.01 | 26 | 1004.5 |
| 20260503210408 | 66 | 264 | 5.0 | 14.0 | 0.00 | 0.01 | 0.01 | 28 | 1004.6 |
| 20260503205908 | 66 | 311 | 5.0 | 13.0 | 0.00 | 0.01 | 0.01 | 28 | 1004.7 |
| 20260503205635 | 65 | 346 | 8.0 | 19.0 | 0.00 | 0.01 | 0.01 | 29 | 1004.7 |
| 20260503204905 | 65 | 336 | 10.0 | 19.0 | 0.00 | 0.01 | 0.01 | 29 | 1004.9 |
| 20260503204406 | 65 | 323 | 7.0 | 18.0 | 0.00 | 0.01 | 0.01 | 32 | 1005.0 |
| 20260503203904 | 65 | 331 | 8.0 | 19.0 | 0.00 | 0.01 | 0.01 | 29 | 1005.1 |
| 20260503203402 | 65 | 274 | 9.0 | 19.0 | 0.00 | 0.01 | 0.01 | 28 | 1005.2 |
| 20260503203134 | 66 | 328 | 5.0 | 17.0 | 0.00 | 0.01 | 0.01 | 26 | 1005.2 |
| 20260503202403 | 65 | 349 | 5.0 | 13.0 | 0.00 | 0.01 | 0.01 | 26 | 1005.2 |
| 20260503201904 | 65 | 286 | 6.0 | 18.0 | 0.00 | 0.01 | 0.01 | 25 | 1005.3 |
| 20260503201402 | 65 | 312 | 6.0 | 18.0 | 0.00 | 0.01 | 0.01 | 26 | 1005.3 |
| 20260503200902 | 65 | 358 | 6.0 | 17.0 | 0.00 | 0.01 | 0.01 | 28 | 1005.3 |
| 20260503200402 | 65 | 335 | 6.0 | 17.0 | 0.00 | 0.01 | 0.01 | 26 | 1005.5 |
| 20260503195905 | 65 | 322 | 6.0 | 13.0 | 0.00 | 0.01 | 0.01 | 27 | 1005.6 |
| 20260503195404 | 65 | 340 | 5.0 | 13.0 | 0.00 | 0.01 | 0.01 | 28 | 1005.6 |
| 20260503194857 | 65 | 340 | 4.0 | 11.0 | 0.00 | 0.01 | 0.01 | 31 | 1005.5 |
| 20260503194350 | 65 | 292 | 5.0 | 13.0 | 0.00 | 0.01 | 0.01 | 26 | 1005.6 |
| 20260503193845 | 65 | 298 | 6.0 | 14.0 | 0.00 | 0.01 | 0.01 | 27 | 1005.7 |
| 20260503193338 | 65 | 264 | 6.0 | 14.0 | 0.00 | 0.01 | 0.01 | 27 | 1005.6 |
| 20260503192831 | 65 | 338 | 5.0 | 16.0 | 0.00 | 0.01 | 0.01 | 27 | 1005.6 |
| 20260503192326 | 65 | 7 | 4.0 | 16.0 | 0.00 | 0.01 | 0.01 | 25 | 1005.7 |
| 20260503192051 | 65 | 293 | 4.0 | 13.0 | 0.00 | 0.01 | 0.01 | 27 | 1005.6 |
| 20260503191314 | 65 | 332 | 7.0 | 18.0 | 0.00 | 0.01 | 0.01 | 26 | 1005.7 |
| 20260503190808 | 65 | 343 | 7.0 | 18.0 | 0.00 | 0.01 | 0.01 | 27 | 1005.7 |
| 20260503190303 | 65 | 341 | 5.0 | 13.0 | 0.00 | 0.01 | 0.01 | 30 | 1005.7 |
| 20260503185756 | 65 | 288 | 7.0 | 17.0 | 0.00 | 0.01 | 0.01 | 28 | 1005.8 |
| 20260503185250 | 64 | 345 | 9.0 | 18.0 | 0.00 | 0.01 | 0.01 | 34 | 1005.8 |
| 20260503184744 | 64 | 308 | 8.0 | 18.0 | 0.00 | 0.01 | 0.01 | 29 | 1006.0 |
| 20260503184239 | 64 | 330 | 8.0 | 20.0 | 0.00 | 0.01 | 0.01 | 27 | 1006.0 |
| 20260503183732 | 64 | 356 | 9.0 | 19.0 | 0.00 | 0.01 | 0.01 | 31 | 1006.0 |
| 20260503183226 | 63 | 349 | 11.0 | 19.0 | 0.00 | 0.01 | 0.01 | 27 | 1006.1 |
| 20260503182720 | 63 | 332 | 10.0 | 20.0 | 0.00 | 0.01 | 0.01 | 28 | 1006.0 |
| 20260503182215 | 64 | 351 | 10.0 | 20.0 | 0.00 | 0.01 | 0.01 | 26 | 1006.2 |
| 20260503181708 | 64 | 344 | 8.0 | 16.0 | 0.00 | 0.01 | 0.01 | 30 | 1006.1 |
| 20260503181202 | 64 | 311 | 6.0 | 16.0 | 0.00 | 0.01 | 0.01 | 23 | 1006.2 |
| 20260503180656 | 64 | 295 | 7.0 | 16.0 | 0.00 | 0.01 | 0.01 | 22 | 1006.4 |
| 20260503180150 | 63 | 323 | 9.0 | 21.0 | 0.00 | 0.01 | 0.01 | 22 | 1006.3 |
| 20260503175644 | 63 | 334 | 10.0 | 21.0 | 0.00 | 0.01 | 0.01 | 23 | 1006.3 |
| 20260503175138 | 64 | 352 | 9.0 | 19.0 | 0.00 | 0.01 | 0.01 | 21 | 1006.4 |
| 20260503174632 | 64 | 342 | 9.0 | 15.0 | 0.00 | 0.01 | 0.01 | 21 | 1006.3 |
| 20260503174126 | 63 | 18 | 9.0 | 19.0 | 0.00 | 0.01 | 0.01 | 24 | 1006.3 |
| 20260503173622 | 64 | 335 | 8.0 | 19.0 | 0.00 | 0.01 | 0.01 | 21 | 1006.4 |
| 20260503173114 | 64 | 345 | 7.0 | 16.0 | 0.00 | 0.01 | 0.01 | 25 | 1006.4 |
| 20260503172607 | 64 | 306 | 7.0 | 16.0 | 0.00 | 0.01 | 0.01 | 30 | 1006.4 |
| 20260503172102 | 64 | 329 | 6.0 | 13.0 | 0.00 | 0.01 | 0.01 | 30 | 1006.4 |
| 20260503171556 | 63 | 335 | 6.0 | 12.0 | 0.00 | 0.01 | 0.01 | 31 | 1006.4 |
| 20260503171050 | 63 | 342 | 7.0 | 17.0 | 0.00 | 0.01 | 0.01 | 32 | 1006.6 |
| 20260503170544 | 63 | 295 | 8.0 | 17.0 | 0.00 | 0.01 | 0.01 | 35 | 1006.4 |
| 20260503150826 | 60 | 321 | 10.0 | 17.0 | 0.00 | 0.01 | 0.01 | 48 | 1006.2 |
| 20260503150551 | 60 | 341 | 12.0 | 16.0 | 0.00 | 0.01 | 0.01 | 51 | 1006.2 |
| 20260503140224 | 57 | 353 | 10.0 | 17.0 | 0.00 | 0.01 | 0.01 | 60 | 1006.1 |
| 20260503131224 | 53 | 5 | 6.0 | 11.0 | 0.00 | 0.01 | 0.01 | 69 | 1006.0 |
| 20260503130724 | 52 | 5 | 6.0 | 9.0 | 0.00 | 0.01 | 0.01 | 70 | 1006.0 |
| 20260503130225 | 52 | 350 | 6.0 | 8.0 | 0.00 | 0.01 | 0.01 | 69 | 1005.9 |
| 20260503110217 | 43 | 231 | 0.0 | 0.0 | 0.00 | 0.01 | 0.01 | 87 | 1004.5 |
| 20260503100125 | 44 | 217 | 0.0 | 0.0 | 0.00 | 0.01 | 0.01 | 92 | 1004.6 |
| 20260503090114 | 47 | 217 | 0.0 | 0.0 | 0.00 | 0.01 | 0.01 | 77 | 1004.7 |
| 20260503081557 | 48 | 172 | 0.0 | 0.0 | 0.00 | 0.01 | 0.01 | 72 | 1005.0 |
| 20260503081049 | 48 | 165 | 0.0 | 0.0 | 0.00 | 0.01 | 0.01 | 72 | 1005.0 |
| 20260503080816 | 48 | 165 | 0.0 | 0.0 | 0.00 | 0.01 | 0.01 | 71 | 1005.1 |
| 20260503080311 | 49 | 165 | 0.0 | 0.0 | 0.00 | 0.01 | 0.01 | 71 | 1005.1 |
| 20260503072456 | 52 | 147 | 1.0 | 4.0 | 0.01 | 0.01 | 0.01 | 65 | 1005.1 |
| 20260503071950 | 53 | 155 | 0.0 | 4.0 | 0.01 | 0.01 | 0.01 | 64 | 1005.2 |
| 20260503071444 | 53 | 222 | 0.0 | 2.0 | 0.01 | 0.01 | 0.01 | 65 | 1005.2 |
| 20260503070939 | 53 | 135 | 0.0 | 2.0 | 0.01 | 0.01 | 0.01 | 65 | 1005.2 |
| 20260503070933 | 53 | 252 | 0.0 | 4.0 | 0.01 | 0.01 | 0.01 | 65 | 1005.3 |
| 20260503054845 | 55 | 160 | 1.0 | 3.0 | 0.00 | 0.00 | 0.00 | 65 | 1007.1 |
| 20260503054345 | 56 | 68 | 0.0 | 3.0 | 0.00 | 0.00 | 0.00 | 57 | 1007.5 |
| 20260503053843 | 56 | 54 | 2.0 | 7.0 | 0.00 | 0.00 | 0.00 | 57 | 1007.4 |
| 20260503053347 | 55 | 51 | 8.0 | 12.0 | 0.00 | 0.00 | 0.00 | 62 | 1007.0 |
| 20260503053343 | 56 | 219 | 5.0 | 10.0 | 0.00 | 0.00 | 0.00 | 61 | 1007.3 |
| 20260503052341 | 55 | 46 | 8.0 | 12.0 | 0.00 | 0.00 | 0.00 | 62 | 1007.0 |
| 20260503052111 | 55 | 13 | 6.0 | 11.0 | 0.00 | 0.00 | 0.00 | 66 | 1006.9 |
| 20260503051342 | 55 | 35 | 3.0 | 8.0 | 0.00 | 0.00 | 0.00 | 63 | 1006.8 |
| 20260503050842 | 55 | 88 | 1.0 | 3.0 | 0.00 | 0.00 | 0.00 | 60 | 1006.5 |
| 20260503050341 | 54 | 110 | 1.0 | 3.0 | 0.00 | 0.00 | 0.00 | 60 | 1006.3 |
| 20260503045842 | 54 | 91 | 0.0 | 2.0 | 0.00 | 0.00 | 0.00 | 61 | 1006.3 |
| 20260503045336 | 54 | 224 | 0.0 | 2.0 | 0.00 | 0.00 | 0.00 | 61 | 1006.4 |
| 20260503044830 | 54 | 113 | 1.0 | 4.0 | 0.00 | 0.00 | 0.00 | 61 | 1006.4 |
| 20260503044324 | 54 | 126 | 1.0 | 4.0 | 0.00 | 0.00 | 0.00 | 62 | 1006.4 |
| 20260503043818 | 54 | 174 | 0.0 | 2.0 | 0.00 | 0.00 | 0.00 | 62 | 1006.6 |
| 20260503043312 | 54 | 145 | 0.0 | 2.0 | 0.00 | 0.00 | 0.00 | 64 | 1006.8 |
| 20260503042805 | 54 | 132 | 0.0 | 2.0 | 0.00 | 0.00 | 0.00 | 69 | 1007.0 |
| 20260503042300 | 54 | 100 | 0.0 | 0.0 | 0.00 | 0.00 | 0.00 | 66 | 1007.1 |
| 20260503041753 | 54 | 103 | 0.0 | 1.0 | 0.00 | 0.00 | 0.00 | 59 | 1007.1 |
| 20260503041248 | 54 | 102 | 0.0 | 3.0 | 0.00 | 0.00 | 0.00 | 60 | 1007.0 |
| 20260503040742 | 54 | 246 | 0.0 | 3.0 | 0.00 | 0.00 | 0.00 | 61 | 1007.1 |
| 20260503040236 | 55 | 152 | 0.0 | 1.0 | 0.00 | 0.00 | 0.00 | 59 | 1007.2 |
| 20260503035730 | 55 | 160 | 0.0 | 1.0 | 0.00 | 0.00 | 0.00 | 59 | 1007.3 |
| 20260503035224 | 55 | 141 | 0.0 | 1.0 | 0.00 | 0.00 | 0.00 | 58 | 1007.4 |
| 20260503034718 | 54 | 117 | 0.0 | 1.0 | 0.00 | 0.00 | 0.00 | 59 | 1007.5 |
| 20260503034211 | 54 | 152 | 0.0 | 1.0 | 0.00 | 0.00 | 0.00 | 59 | 1007.5 |
| 20260503033706 | 54 | 125 | 0.0 | 0.0 | 0.00 | 0.00 | 0.00 | 60 | 1007.6 |
| 20260503033200 | 54 | 125 | 0.0 | 0.0 | 0.00 | 0.00 | 0.00 | 60 | 1007.6 |
| 20260503032654 | 54 | 125 | 0.0 | 0.0 | 0.00 | 0.00 | 0.00 | 60 | 1007.6 |
| 20260503032418 | 55 | 174 | 0.0 | 0.0 | 0.00 | 0.00 | 0.00 | 59 | 1007.7 |
| 20260503031641 | 55 | 172 | 0.0 | 0.0 | 0.00 | 0.00 | 0.00 | 57 | 1007.8 |
| 20260503031135 | 55 | 172 | 0.0 | 0.0 | 0.00 | 0.00 | 0.00 | 58 | 1007.9 |
| 20260503030630 | 55 | 160 | 0.0 | 0.0 | 0.00 | 0.00 | 0.00 | 58 | 1007.9 |
| 20260503030123 | 55 | 160 | 0.0 | 0.0 | 0.00 | 0.00 | 0.00 | 56 | 1007.9 |
| 20260503025617 | 56 | 160 | 0.0 | 0.0 | 0.00 | 0.00 | 0.00 | 58 | 1008.0 |
| 20260503025112 | 56 | 210 | 0.0 | 0.0 | 0.00 | 0.00 | 0.00 | 58 | 1008.1 |
| 20260503024606 | 56 | 224 | 0.0 | 0.0 | 0.00 | 0.00 | 0.00 | 58 | 1008.2 |
| 20260503024100 | 57 | 224 | 1.0 | 3.0 | 0.00 | 0.00 | 0.00 | 54 | 1008.3 |
| 20260503023554 | 57 | 134 | 1.0 | 3.0 | 0.00 | 0.00 | 0.00 | 55 | 1008.5 |
| 20260503023320 | 58 | 120 | 1.0 | 6.0 | 0.00 | 0.00 | 0.00 | 53 | 1008.7 |
| 20260503022542 | 58 | 315 | 3.0 | 16.0 | 0.00 | 0.00 | 0.00 | 52 | 1009.0 |
| 20260503022306 | 59 | 299 | 3.0 | 16.0 | 0.00 | 0.00 | 0.00 | 50 | 1009.1 |
| 20260503021531 | 60 | 321 | 2.0 | 11.0 | 0.00 | 0.00 | 0.00 | 48 | 1009.0 |
| 20260503021024 | 60 | 340 | 1.0 | 6.0 | 0.00 | 0.00 | 0.00 | 43 | 1008.9 |
| 20260503020517 | 60 | 300 | 0.0 | 6.0 | 0.00 | 0.00 | 0.00 | 42 | 1008.8 |
| 20260503020012 | 60 | 304 | 0.0 | 3.0 | 0.00 | 0.00 | 0.00 | 42 | 1008.7 |
| 20260503015506 | 60 | 299 | 0.0 | 4.0 | 0.00 | 0.00 | 0.00 | 41 | 1008.6 |
| 20260503015000 | 61 | 359 | 1.0 | 5.0 | 0.00 | 0.00 | 0.00 | 41 | 1008.6 |
| 20260503014453 | 61 | 328 | 1.0 | 6.0 | 0.00 | 0.00 | 0.00 | 41 | 1008.6 |
| 20260503013950 | 61 | 349 | 1.0 | 7.0 | 0.00 | 0.00 | 0.00 | 41 | 1008.6 |
| 20260503013720 | 61 | 283 | 0.0 | 7.0 | 0.00 | 0.00 | 0.00 | 41 | 1008.7 |
| 20260503012949 | 61 | 131 | 0.0 | 3.0 | 0.00 | 0.00 | 0.00 | 40 | 1008.6 |
| 20260503012448 | 61 | 271 | 0.0 | 3.0 | 0.00 | 0.00 | 0.00 | 40 | 1008.6 |
| 20260503012222 | 62 | 269 | 1.0 | 5.0 | 0.00 | 0.00 | 0.00 | 40 | 1008.5 |
| 20260503011448 | 62 | 313 | 2.0 | 5.0 | 0.00 | 0.00 | 0.00 | 40 | 1008.6 |
| 20260503010950 | 62 | 264 | 2.0 | 7.0 | 0.00 | 0.00 | 0.00 | 41 | 1008.5 |
| 20260503010448 | 62 | 268 | 2.0 | 9.0 | 0.00 | 0.00 | 0.00 | 40 | 1008.6 |
| 20260503005949 | 61 | 326 | 2.0 | 9.0 | 0.00 | 0.00 | 0.00 | 43 | 1008.6 |
| 20260503005445 | 61 | 298 | 1.0 | 5.0 | 0.00 | 0.00 | 0.00 | 42 | 1008.6 |
| 20260503004946 | 61 | 159 | 0.0 | 4.0 | 0.00 | 0.00 | 0.00 | 42 | 1008.5 |
| 20260503004444 | 62 | 215 | 0.0 | 3.0 | 0.00 | 0.00 | 0.00 | 41 | 1008.5 |
| 20260503004335 | 62 | 349 | 2.0 | 12.0 | 0.00 | 0.00 | 0.00 | 39 | 1008.4 |
| 20260503004225 | 62 | 153 | 2.0 | 12.0 | 0.00 | 0.00 | 0.00 | 41 | 1008.5 |
| 20260503002945 | 62 | 171 | 1.0 | 7.0 | 0.00 | 0.00 | 0.00 | 43 | 1008.6 |
| 20260503002444 | 62 | 321 | 1.0 | 7.0 | 0.00 | 0.00 | 0.00 | 39 | 1008.5 |
| 20260503001948 | 62 | 206 | 1.0 | 7.0 | 0.00 | 0.00 | 0.00 | 40 | 1008.8 |
| 20260503001446 | 63 | 304 | 1.0 | 7.0 | 0.00 | 0.00 | 0.00 | 40 | 1008.8 |
| 20260503000941 | 63 | 283 | 1.0 | 7.0 | 0.00 | 0.00 | 0.00 | 39 | 1008.9 |
| 20260503000440 | 63 | 263 | 1.0 | 10.0 | 0.00 | 0.00 | 0.00 | 38 | 1008.9 |
| 20260503000211 | 63 | 165 | 1.0 | 10.0 | 0.00 | 0.00 | 0.00 | 39 | 1008.9 |
| 20260502235440 | 63 | 296 | 1.0 | 4.0 | 0.00 | 0.00 | 0.00 | 38 | 1008.9 |
| 20260502235212 | 63 | 327 | 0.0 | 4.0 | 0.00 | 0.00 | 0.00 | 38 | 1009.0 |
| 20260502234441 | 63 | 336 | 0.0 | 3.0 | 0.00 | 0.00 | 0.00 | 38 | 1009.0 |
| 20260502233942 | 64 | 307 | 1.0 | 5.0 | 0.00 | 0.00 | 0.00 | 38 | 1008.9 |
| 20260502233441 | 64 | 209 | 1.0 | 7.0 | 0.00 | 0.00 | 0.00 | 37 | 1008.9 |
| 20260502232942 | 64 | 295 | 2.0 | 7.0 | 0.00 | 0.00 | 0.00 | 37 | 1009.0 |
| 20260502232435 | 64 | 315 | 1.0 | 6.0 | 0.00 | 0.00 | 0.00 | 37 | 1009.0 |
| 20260502231928 | 64 | 300 | 0.0 | 4.0 | 0.00 | 0.00 | 0.00 | 38 | 1009.1 |
| 20260502231422 | 64 | 238 | 0.0 | 3.0 | 0.00 | 0.00 | 0.00 | 37 | 1009.1 |
| 20260502230917 | 64 | 4 | 1.0 | 6.0 | 0.00 | 0.00 | 0.00 | 37 | 1009.2 |
| 20260502230411 | 64 | 276 | 1.0 | 6.0 | 0.00 | 0.00 | 0.00 | 37 | 1009.2 |
| 20260502225905 | 64 | 226 | 1.0 | 4.0 | 0.00 | 0.00 | 0.00 | 37 | 1009.2 |
| 20260502225359 | 64 | 155 | 1.0 | 4.0 | 0.00 | 0.00 | 0.00 | 36 | 1009.2 |
| 20260502225125 | 64 | 307 | 1.0 | 4.0 | 0.00 | 0.00 | 0.00 | 36 | 1009.4 |
| 20260502224348 | 64 | 287 | 1.0 | 4.0 | 0.00 | 0.00 | 0.00 | 36 | 1009.4 |
| 20260502224120 | 64 | 328 | 2.0 | 6.0 | 0.00 | 0.00 | 0.00 | 36 | 1009.5 |
| 20260502223619 | 64 | 319 | 4.0 | 13.0 | 0.00 | 0.00 | 0.00 | 36 | 1009.6 |
| 20260502222847 | 64 | 293 | 5.0 | 13.0 | 0.00 | 0.00 | 0.00 | 36 | 1009.6 |